QPF
0.00 0.00 0.00 0.00 0.00 0.00 0.00 0.00 0.01 0.01 0.00 0.01 0.01 0.00 0.00 0.00 0.00 0.00 0.00 0.00 0.00 0.00 0.00 0.00 0.00 0.00 0.00 0.00 0.00 0.00 0.00 0.00 0.00 0.00 0.00 0.00 0.00 0.00 0.00 0.00 0.00 0.00 0.00 0.00
0.00 0.00 0.00 0.00 0.00 0.00 0.00 0.00 0.00 0.00 0.00 0.00 0.00 0.00 0.00 0.00 0.00 0.00 0.00 0.00 0.00 0.00 0.00 0.00 0.00 0.00 0.00 0.00 0.00 0.00 0.00 0.00 0.00 0.00 0.00 0.00 0.00 0.00 0.00 0.00 0.00 0.00 0.00 0.00
0.00 0.00 0.00 0.00 0.00 0.00 0.00 0.00 0.00 0.00 0.00 0.00 0.00 0.00 0.00 0.01 0.00 0.00 0.00 0.00 0.00 0.00 0.00 0.00 0.00 0.00 0.00 0.00 0.00 0.00 0.00 0.00 0.00 0.00 0.00 0.00 0.00 0.00 0.00 0.00 0.00 0.00 0.00 0.00
0.00 0.00 0.00 0.00 0.00 0.00 0.00 0.00 0.00 0.00 0.00 0.00 0.00 0.00 0.00 0.00 0.00 0.00 0.00 0.00 0.00 0.00 0.00 0.00 0.00 0.00 0.00 0.00 0.00 0.00 0.00 0.00 0.00 0.00 0.00 0.00 0.00 0.00 0.00 0.00 0.00 0.00 0.00 0.00
0.00 0.00 0.00 0.00 0.00 0.00 0.00 0.00 0.00 0.00 0.00 0.00 0.00 0.00 0.00 0.00 0.00 0.00 0.00 0.00 0.00 0.00 0.00 0.00 0.00 0.00 0.00 0.00 0.00 0.00 0.00 0.00 0.00 0.00 0.00 0.00 0.00 0.00 0.00 0.00 0.00 0.00 0.00 0.00
0.00 0.00 0.00 0.00 0.00 0.00 0.00 0.00 0.00 0.00 0.00 0.00 0.00 0.00 0.00 0.00 0.00 0.00 0.00 0.00 0.00 0.00 0.00 0.00 0.00 0.00 0.00 0.00 0.00 0.00 0.00 0.00 0.00 0.00 0.00 0.00 0.00 0.00 0.00 0.00 0.00 0.00 0.00 0.00
0.00 0.00 0.00 0.00 0.00 0.00 0.00 0.00 0.00 0.00 0.00 0.00 0.00 0.00 0.00 0.00 0.00 0.00 0.00 0.00 0.00 0.00 0.00 0.00 0.00 0.00 0.00 0.00 0.00 0.00 0.00 0.00 0.00 0.00 0.00 0.00 0.00 0.00 0.01 0.00 0.00 0.00 0.00 0.00
0.00 0.00 0.00 0.00 0.00 0.00 0.00 0.00 0.00 0.00 0.00 0.00 0.00 0.00 0.00 0.00 0.00 0.00 0.00 0.00 0.00 0.00 0.00 0.00 0.00 0.00 0.00 0.00 0.00 0.00 0.00 0.00 0.00 0.00 0.00 0.00 0.00 0.00 0.00 0.00 0.00 0.00 0.00 0.00
0.00 0.00 0.00 0.00 0.00 0.00 0.00 0.00 0.00 0.00 0.00 0.00 0.00 0.00 0.00 0.00 0.00 0.00 0.00 0.00 0.00 0.00 0.00 0.00 0.00 0.00 0.00 0.00 0.00 0.00 0.00 0.00 0.00 0.00 0.00 0.00 0.00 0.00 0.00 0.00 0.00 0.00 0.00 0.00
0.00 0.00 0.00 0.00 0.00 0.00 0.00 0.00 0.00 0.00 0.00 0.00 0.00 0.00 0.00 0.00 0.00 0.00 0.00 0.00 0.00 0.00 0.00 0.00 0.01 0.00 0.00 0.00 0.00 0.00 0.00 0.00 0.00 0.00 0.00 0.00 0.00 0.00 0.00 0.00 0.00 0.00 0.00 0.00
0.00 0.00 0.00 0.00 0.00 0.00 0.00 0.00 0.00 0.00 0.00 0.00 0.00 0.00 0.00 0.00 0.00 0.00 0.00 0.00 0.00 0.00 0.00 0.00 0.02 0.00 0.00 0.00 0.00 0.00 0.00 0.00 0.00 0.00 0.00 0.00 0.00 0.00 0.00 0.00 0.00 0.00 0.00 0.02
0.00 0.00 0.00 0.00 0.00 0.00 0.00 0.00 0.00 0.00 0.00 0.00 0.00 0.00 0.00 0.00 0.00 0.00 0.00 0.00 0.00 0.00 0.00 0.00 0.00 0.00 0.00 0.00 0.00 0.00 0.00 0.00 0.00 0.00 0.00 0.00 0.00 0.00 0.00 0.00 0.00 0.00 0.00 0.00
0.00 0.00 0.00 0.00 0.00 0.00 0.00 0.00 0.00 0.00 0.00 0.00 0.00 0.00 0.00 0.00 0.00 0.00 0.00 0.00 0.00 0.00 0.00 0.00 0.00 0.00 0.00 0.00 0.00 0.00 0.00 0.00 0.00 0.00 0.00 0.00 0.00 0.00 0.00 0.00 0.00 0.00 0.00 0.00
0.00 0.00 0.00 0.00 0.00 0.00 0.00 0.00 0.00 0.00 0.00 0.00 0.00 0.00 0.00 0.00 0.00 0.02 0.03 0.01 0.01 0.07 0.00 0.00 0.00 0.00 0.00 0.00 0.00 0.00 0.00 0.00 0.00 0.00 0.00 0.00 0.00 0.00 0.00 0.00 0.00 0.00 0.00 0.00
0.00 0.00 0.00 0.00 0.00 0.00 0.00 0.00 0.00 0.00 0.00 0.00 0.00 0.00 0.00 0.00 0.00 0.01 0.09 0.24 0.06 0.02 0.00 0.00 0.00 0.01 0.01 0.01 0.02 0.00 0.00 0.00 0.00 0.00 0.00 0.00 0.00 0.00 0.00 0.00 0.00 0.00 0.00 0.00
0.00 0.00 0.00 0.00 0.00 0.00 0.00 0.00 0.00 0.00 0.00 0.00 0.00 0.00 0.00 0.00 0.00 0.07 0.32 0.23 0.19 0.07 0.01 0.00 0.00 0.09 0.18 0.02 0.00 0.00 0.00 0.00 0.00 0.00 0.00 0.00 0.00 0.00 0.00 0.00 0.00 0.00 0.00 0.00
0.00 0.00 0.00 0.00 0.00 0.00 0.00 0.00 0.00 0.00 0.00 0.00 0.00 0.00 0.00 0.01 0.02 0.03 0.11 0.19 0.15 0.19 0.12 0.02 0.01 0.01 0.16 0.15 0.04 0.00 0.00 0.00 0.00 0.00 0.00 0.00 0.00 0.00 0.00 0.00 0.00 0.00 0.00 0.00
0.00 0.00 0.00 0.00 0.00 0.00 0.00 0.00 0.00 0.00 0.00 0.00 0.00 0.00 0.00 0.01 0.01 0.00 0.01 0.01 0.01 0.01 0.04 0.07 0.11 0.15 0.17 0.19 0.12 0.06 0.06 0.04 0.02 0.02 0.02 0.01 0.00 0.01 0.00 0.00 0.00 0.01 0.02 0.01
0.01 0.00 0.00 0.00 0.00 0.00 0.00 0.00 0.00 0.00 0.01 0.03 0.02 0.01 0.00 0.00 0.00 0.00 0.00 0.00 0.00 0.00 0.00 0.00 0.03 0.11 0.20 0.30 0.26 0.16 0.20 0.26 0.26 0.19 0.17 0.09 0.12 0.10 0.05 0.00 0.01 0.02 0.02 0.04
0.01 0.00 0.00 0.00 0.00 0.00 0.00 0.00 0.01 0.01 0.04 0.11 0.18 0.03 0.01 0.00 0.00 0.00 0.00 0.00 0.00 0.00 0.00 0.00 0.00 0.00 0.01 0.06 0.05 0.03 0.19 0.35 0.40 0.44 0.32 0.34 0.24 0.13 0.12 0.16 0.22 0.13 0.09 0.18
0.00 0.00 0.00 0.00 0.00 0.00 0.00 0.00 0.01 0.02 0.08 0.19 0.19 0.27 0.03 0.02 0.01 0.00 0.00 0.00 0.00 0.00 0.00 0.00 0.00 0.00 0.00 0.00 0.00 0.00 0.01 0.07 0.16 0.25 0.29 0.25 0.22 0.24 0.43 0.48 0.54 0.45 0.35 0.25
0.01 0.00 0.00 0.01 0.00 0.00 0.01 0.00 0.00 0.01 0.05 0.23 0.23 0.39 0.12 0.04 0.01 0.01 0.01 0.00 0.00 0.00 0.00 0.00 0.00 0.00 0.00 0.00 0.00 0.00 0.00 0.01 0.07 0.09 0.17 0.30 0.39 0.44 0.49 0.44 0.38 0.55 0.77 0.51
0.02 0.02 0.03 0.06 0.06 0.01 0.01 0.01 0.00 0.01 0.09 0.26 0.58 0.61 0.72 0.42 0.05 0.01 0.00 0.00 0.01 0.00 0.00 0.00 0.00 0.00 0.00 0.00 0.00 0.00 0.00 0.01 0.02 0.05 0.08 0.12 0.15 0.11 0.04 0.06 0.06 0.11 0.13 0.09
0.05 0.02 0.02 0.12 0.06 0.01 0.04 0.02 0.03 0.04 0.09 0.10 0.18 0.33 0.35 0.44 0.24 0.05 0.01 0.00 0.00 0.00 0.00 0.00 0.00 0.00 0.00 0.00 0.00 0.00 0.00 0.00 0.00 0.00 0.01 0.01 0.01 0.01 0.01 0.01 0.02 0.01 0.00 0.01
0.06 0.04 0.01 0.11 0.24 0.10 0.03 0.08 0.08 0.10 0.04 0.05 0.09 0.07 0.07 0.20 0.16 0.08 0.01 0.00 0.00 0.00 0.00 0.00 0.00 0.00 0.00 0.00 0.00 0.00 0.00 0.00 0.00 0.00 0.01 0.03 0.01 0.01 0.05 0.06 0.06 0.04 0.01 0.00
0.11 0.15 0.09 0.14 0.34 0.17 0.04 0.11 0.13 0.09 0.02 0.01 0.03 0.06 0.01 0.01 0.03 0.05 0.01 0.00 0.00 0.00 0.00 0.00 0.00 0.00 0.00 0.00 0.00 0.00 0.00 0.00 0.00 0.00 0.00 0.01 0.00 0.01 0.01 0.01 0.01 0.00 0.00 0.00
MSLP
1004.79 1005.25 1005.24 1005.02 1004.73 1004.12 1003.82 1003.92 1004.66 1004.93 1005.18 1005.36 1005.06 1005.96 1006.09 1006.28 1007.07 1007.68 1007.99 1008.10 1008.51 1009.06 1009.66 1010.22 1010.80 1011.70 1012.58 1013.32 1013.93 1014.58 1015.08 1015.55 1015.94 1016.17 1016.44 1016.64 1017.06 1017.02 1017.49 1017.45 1017.51 1017.78 1018.06 1018.14
1005.75 1005.23 1004.89 1004.57 1004.08 1003.69 1003.42 1003.36 1003.28 1003.24 1003.49 1004.71 1004.78 1005.48 1005.70 1005.66 1005.97 1006.76 1007.37 1007.42 1007.83 1008.46 1009.25 1009.92 1010.70 1011.53 1012.27 1013.13 1013.72 1014.40 1014.70 1015.32 1015.64 1015.82 1016.03 1016.44 1016.44 1016.64 1016.75 1017.18 1017.44 1017.53 1017.78 1017.99
1006.03 1005.31 1004.71 1004.31 1003.83 1003.28 1002.83 1002.85 1002.58 1002.98 1003.68 1003.43 1004.00 1004.88 1005.25 1005.04 1005.13 1006.02 1006.50 1006.62 1006.98 1007.62 1008.59 1009.46 1010.36 1011.28 1012.11 1012.80 1013.41 1014.22 1014.57 1015.08 1015.34 1015.67 1015.77 1016.18 1016.56 1016.82 1017.16 1017.39 1017.48 1017.52 1017.59 1017.75
1005.98 1005.46 1004.67 1004.04 1003.46 1003.12 1002.68 1001.92 1001.93 1002.83 1004.07 1004.65 1002.88 1003.85 1004.06 1004.03 1004.24 1004.88 1005.52 1005.76 1006.18 1006.77 1007.72 1008.66 1009.70 1010.78 1011.61 1012.32 1012.98 1013.87 1014.40 1014.86 1015.09 1015.57 1015.87 1016.14 1016.35 1016.90 1017.09 1016.99 1017.15 1017.28 1017.44 1017.65
1006.04 1005.67 1004.88 1003.91 1003.24 1002.78 1002.34 1001.66 1001.87 1002.74 1003.17 1003.93 1002.81 1002.87 1001.79 1002.56 1003.25 1003.87 1004.37 1004.96 1005.48 1005.95 1006.91 1007.85 1008.73 1009.86 1010.91 1011.74 1012.50 1013.40 1014.07 1014.65 1014.86 1015.25 1015.59 1015.77 1016.19 1016.34 1016.38 1016.79 1017.08 1017.17 1017.18 1017.33
1006.07 1005.39 1004.89 1003.85 1002.97 1002.40 1002.21 1001.67 1001.80 1002.06 1003.12 1003.81 1002.90 1002.55 1000.79 1001.37 1001.32 1002.73 1003.44 1003.83 1004.49 1005.15 1006.02 1006.93 1007.82 1008.97 1010.16 1011.20 1012.03 1012.91 1013.71 1014.23 1014.63 1015.04 1015.30 1015.47 1015.76 1016.13 1016.50 1016.81 1017.13 1017.11 1017.15 1017.27
1006.16 1005.52 1004.56 1003.99 1003.37 1002.28 1002.17 1002.38 1002.43 1002.80 1002.88 1002.81 1002.36 1001.80 999.98 999.21 999.48 1000.66 1001.65 1002.11 1003.14 1003.93 1004.92 1006.12 1007.14 1008.18 1009.18 1010.26 1011.21 1012.25 1013.21 1013.85 1014.18 1014.61 1014.86 1015.04 1015.35 1015.88 1016.07 1016.24 1016.58 1016.85 1017.03 1016.99
1006.71 1005.66 1004.73 1003.73 1003.19 1002.81 1002.15 1002.45 1002.51 1002.83 1002.95 1002.45 1001.59 1000.33 998.49 997.75 997.55 998.60 999.81 1000.68 1001.75 1002.96 1003.75 1004.85 1005.88 1007.03 1008.08 1009.21 1010.39 1011.41 1012.44 1013.25 1013.77 1014.22 1014.41 1014.50 1014.89 1015.26 1015.63 1016.01 1015.92 1016.16 1016.45 1016.57
1008.10 1006.72 1005.14 1003.40 1003.12 1002.79 1001.90 1001.89 1001.77 1002.21 1002.43 1002.23 1000.87 999.31 997.78 997.38 997.37 998.01 999.02 1000.19 1001.13 1001.97 1002.71 1003.84 1004.94 1005.93 1007.03 1008.24 1009.31 1010.52 1011.56 1012.40 1013.09 1013.68 1014.11 1014.42 1014.63 1014.97 1015.32 1015.55 1015.71 1015.73 1016.05 1016.15
1008.73 1007.89 1006.10 1003.84 1002.84 1002.06 1001.91 1001.37 1001.67 1001.46 1002.05 1001.90 1000.82 999.72 998.78 997.95 997.07 997.14 997.78 999.23 1000.12 1001.17 1002.02 1002.83 1003.78 1004.96 1006.04 1007.03 1008.27 1009.54 1010.69 1011.51 1012.24 1012.97 1013.58 1014.02 1014.38 1014.71 1015.01 1015.30 1015.51 1015.49 1015.42 1015.65
1009.05 1008.65 1007.63 1005.41 1003.90 1002.91 1001.98 1001.12 1001.20 1001.36 1001.38 1001.32 1000.87 999.61 998.02 997.77 997.21 996.96 997.45 998.41 999.25 1000.25 1000.88 1001.93 1003.01 1004.12 1005.15 1006.13 1007.32 1008.51 1009.73 1010.75 1011.50 1012.19 1012.97 1013.55 1014.04 1014.36 1014.66 1014.86 1014.91 1014.99 1015.33 1015.58
1009.43 1009.26 1008.44 1006.45 1004.04 1003.04 1002.24 1001.49 1000.91 1000.98 1001.44 1001.15 1000.57 998.63 997.37 998.23 998.42 997.50 998.14 997.98 998.93 999.32 999.91 1000.96 1001.81 1003.05 1004.32 1005.29 1006.23 1007.40 1008.61 1009.54 1010.43 1011.25 1012.07 1012.76 1013.28 1013.76 1014.20 1014.49 1014.57 1014.74 1014.99 1015.27
1009.78 1009.99 1009.41 1007.45 1004.41 1002.75 1002.24 1002.11 1001.55 1000.29 1000.45 1000.83 1000.87 999.09 997.77 997.70 998.73 999.69 1000.71 999.06 999.51 999.99 999.76 1000.09 1001.37 1002.35 1003.53 1004.53 1005.38 1006.37 1007.61 1008.52 1009.44 1010.29 1011.27 1012.03 1012.61 1013.13 1013.48 1013.96 1014.25 1014.43 1014.61 1014.93
1010.64 1010.51 1010.68 1009.59 1007.21 1006.21 1004.59 1002.99 1001.99 1001.07 1000.09 1000.34 999.98 999.79 999.08 999.30 999.26 1000.59 1001.37 1002.85 1003.07 1003.03 1000.98 1000.31 1000.56 1001.53 1002.70 1003.88 1004.84 1005.69 1006.65 1007.63 1008.62 1009.52 1010.43 1011.09 1011.59 1012.25 1012.82 1013.30 1013.72 1014.02 1014.25 1014.50
1011.24 1011.22 1010.78 1009.38 1007.41 1006.61 1005.32 1003.79 1002.40 1001.74 1000.83 999.73 999.75 999.87 999.40 999.58 999.87 1002.37 1003.36 1003.34 1006.61 1005.41 1003.11 1002.52 1002.35 1002.75 1003.54 1004.43 1005.17 1005.66 1006.20 1006.96 1007.78 1008.74 1009.58 1010.09 1010.58 1011.28 1012.11 1012.64 1013.05 1013.44 1013.84 1014.02
1011.84 1011.65 1011.05 1009.62 1007.98 1007.07 1005.46 1004.30 1002.83 1001.85 1000.75 999.77 999.82 1000.53 1000.51 1001.09 1003.38 1003.61 1004.90 1005.36 1006.04 1007.64 1006.45 1005.32 1004.83 1004.75 1005.13 1006.20 1005.94 1005.70 1005.96 1006.37 1007.05 1007.91 1008.65 1009.34 1009.98 1010.58 1011.19 1011.89 1012.36 1012.87 1013.21 1013.51
1012.56 1012.36 1012.15 1010.51 1009.28 1008.12 1006.29 1004.86 1003.51 1002.63 1001.80 1001.13 1000.10 1000.99 1001.74 1003.28 1003.76 1005.15 1005.87 1006.34 1006.63 1009.07 1009.28 1007.45 1006.81 1007.10 1005.98 1008.25 1007.63 1006.66 1006.42 1006.47 1006.84 1007.42 1008.08 1008.77 1009.39 1010.06 1010.68 1011.31 1011.94 1012.29 1012.74 1012.98
1012.07 1012.52 1012.59 1011.35 1010.33 1008.87 1006.20 1006.05 1005.77 1005.19 1004.90 1003.80 1001.89 1002.12 1002.92 1004.92 1006.81 1006.90 1006.75 1008.14 1009.63 1010.60 1009.65 1008.84 1008.40 1008.20 1009.02 1009.33 1007.97 1007.43 1006.98 1006.85 1007.19 1007.76 1008.22 1008.74 1009.26 1009.71 1010.10 1010.55 1011.12 1011.59 1012.14 1012.57
1011.14 1011.89 1012.34 1011.85 1010.99 1009.38 1007.25 1007.16 1007.51 1007.55 1006.81 1006.92 1005.39 1004.86 1004.60 1005.43 1006.12 1007.67 1008.49 1009.52 1010.10 1010.39 1009.28 1009.01 1008.84 1008.47 1008.61 1008.26 1008.86 1007.68 1007.91 1007.96 1008.57 1008.79 1008.42 1008.57 1009.03 1009.57 1009.99 1010.30 1010.59 1010.81 1011.30 1011.92
1011.87 1011.48 1012.08 1011.92 1011.26 1009.98 1008.94 1008.14 1008.08 1007.49 1008.31 1009.02 1007.91 1006.42 1006.95 1006.65 1007.29 1008.90 1008.96 1008.69 1009.42 1009.20 1009.05 1009.04 1009.06 1009.26 1009.00 1009.38 1008.73 1008.01 1008.17 1008.21 1007.61 1009.40 1009.64 1008.94 1009.08 1009.57 1009.71 1010.02 1010.11 1010.23 1010.79 1011.50
1012.94 1012.93 1012.44 1011.81 1011.64 1010.37 1010.23 1009.37 1008.67 1009.21 1011.34 1010.35 1009.80 1008.83 1007.87 1008.09 1008.40 1009.59 1010.03 1009.81 1009.87 1009.90 1009.75 1009.73 1009.87 1010.02 1009.92 1009.87 1009.58 1009.39 1009.52 1009.38 1008.85 1009.50 1009.81 1009.98 1009.96 1010.36 1010.67 1010.55 1010.53 1010.82 1011.21 1011.15
1014.24 1014.27 1013.85 1012.54 1012.19 1011.86 1011.89 1010.61 1010.50 1011.68 1011.88 1011.25 1010.72 1010.35 1009.04 1009.61 1010.03 1010.20 1010.52 1010.64 1010.59 1010.61 1010.64 1010.56 1010.54 1010.69 1010.54 1010.55 1010.34 1010.63 1010.64 1010.67 1010.44 1010.14 1009.39 1010.43 1010.57 1010.97 1011.31 1011.48 1011.36 1010.90 1010.83 1008.45
1015.12 1015.26 1014.98 1015.24 1013.98 1013.29 1013.15 1013.22 1013.06 1012.96 1011.92 1011.80 1011.38 1011.87 1011.42 1011.17 1011.09 1010.95 1011.06 1011.10 1011.03 1010.99 1011.06 1011.17 1011.27 1011.29 1011.29 1011.24 1011.19 1011.31 1011.48 1011.12 1011.02 1010.94 1010.37 1009.63 1009.57 1010.63 1011.06 1011.44 1011.68 1012.13 1012.79 1012.69
1015.36 1015.34 1015.41 1015.40 1014.85 1014.49 1014.02 1013.31 1012.75 1012.16 1011.68 1011.07 1011.44 1011.99 1012.37 1012.55 1012.32 1011.88 1011.66 1011.60 1011.53 1011.59 1011.67 1011.81 1011.71 1011.61 1011.86 1011.93 1011.67 1011.65 1011.66 1011.25 1011.02 1010.96 1010.35 1010.30 1009.66 1010.13 1011.37 1011.32 1011.04 1012.10 1012.80 1013.25
1014.85 1015.86 1015.37 1015.32 1015.58 1015.02 1014.32 1014.47 1013.21 1011.65 1010.73 1009.97 1011.16 1012.74 1013.31 1013.00 1012.93 1012.98 1012.70 1012.27 1012.02 1011.71 1011.67 1011.83 1012.09 1012.30 1012.54 1012.30 1012.04 1011.67 1011.77 1011.49 1011.20 1011.00 1011.12 1011.00 1010.32 1010.93 1011.93 1011.16 1011.33 1012.68 1013.36 1013.38
1014.57 1015.06 1015.12 1014.96 1015.49 1014.94 1015.39 1014.75 1014.13 1012.87 1012.75 1011.16 1011.94 1013.56 1013.04 1013.52 1013.95 1013.83 1013.32 1012.68 1012.36 1012.42 1012.10 1012.18 1012.46 1012.63 1012.40 1012.11 1012.14 1012.29 1012.12 1012.01 1011.97 1011.81 1011.68 1011.62 1011.59 1011.44 1011.42 1011.79 1012.15 1013.83 1013.60 1013.17
Thickness
5806 5780 5768 5789 5805 5816 5817 5816 5797 5812 5821 5814 5813 5815 5816 5829 5824 5816 5818 5821 5822 5820 5824 5827 5827 5825 5820 5817 5813 5811 5809 5808 5807 5805 5804 5804 5803 5804 5804 5805 5806 5807 5806 5807
5777 5771 5798 5810 5814 5813 5810 5808 5810 5827 5839 5818 5813 5808 5817 5829 5830 5824 5821 5824 5826 5824 5823 5824 5823 5823 5820 5816 5815 5812 5813 5811 5811 5811 5811 5810 5811 5813 5812 5810 5810 5811 5810 5809
5758 5782 5806 5802 5800 5800 5803 5799 5812 5813 5822 5834 5820 5801 5811 5832 5841 5832 5828 5834 5835 5831 5824 5824 5822 5821 5820 5817 5816 5813 5814 5812 5814 5814 5815 5814 5813 5812 5810 5810 5811 5812 5812 5811
5763 5787 5789 5789 5790 5801 5780 5825 5831 5808 5793 5763 5831 5774 5803 5821 5830 5831 5829 5833 5835 5836 5834 5830 5825 5821 5820 5820 5821 5816 5815 5814 5816 5815 5813 5812 5809 5806 5809 5813 5814 5814 5813 5812
5750 5763 5770 5775 5788 5803 5796 5827 5822 5817 5793 5785 5807 5789 5817 5828 5820 5825 5832 5834 5837 5840 5838 5832 5831 5827 5824 5824 5821 5817 5816 5814 5816 5816 5815 5815 5811 5814 5817 5814 5813 5814 5814 5812
5749 5775 5772 5777 5796 5804 5815 5816 5814 5815 5787 5755 5797 5795 5810 5816 5829 5829 5837 5841 5840 5841 5841 5839 5838 5834 5828 5826 5823 5819 5814 5813 5815 5815 5815 5816 5814 5813 5812 5811 5810 5811 5812 5813
5730 5747 5773 5783 5767 5793 5794 5781 5754 5750 5749 5746 5805 5793 5821 5845 5854 5847 5844 5851 5849 5849 5845 5839 5834 5832 5831 5826 5824 5820 5814 5811 5814 5814 5815 5817 5816 5815 5814 5814 5812 5810 5810 5812
5694 5700 5746 5776 5766 5761 5772 5774 5753 5718 5735 5758 5807 5785 5827 5867 5879 5866 5860 5864 5861 5853 5849 5849 5843 5838 5835 5832 5827 5823 5816 5812 5813 5813 5814 5817 5818 5817 5817 5814 5817 5815 5814 5816
5671 5683 5737 5765 5772 5776 5771 5756 5792 5769 5779 5770 5796 5823 5854 5865 5864 5864 5859 5853 5853 5853 5853 5849 5846 5843 5839 5836 5832 5826 5820 5816 5815 5812 5811 5813 5815 5815 5814 5815 5816 5818 5819 5818
5687 5659 5712 5748 5764 5770 5768 5795 5758 5773 5735 5733 5766 5789 5797 5831 5851 5860 5859 5850 5852 5854 5852 5851 5851 5846 5843 5841 5838 5831 5825 5819 5816 5814 5811 5810 5810 5812 5812 5813 5812 5815 5821 5821
5680 5667 5676 5719 5723 5734 5756 5762 5772 5779 5771 5745 5739 5765 5831 5836 5851 5854 5858 5857 5856 5854 5856 5854 5854 5849 5844 5842 5838 5833 5825 5820 5817 5817 5814 5811 5809 5809 5810 5811 5813 5814 5817 5818
5677 5662 5653 5686 5737 5754 5758 5758 5774 5755 5738 5757 5762 5784 5851 5838 5833 5852 5854 5863 5861 5863 5862 5859 5860 5854 5844 5840 5838 5835 5828 5824 5821 5819 5816 5812 5810 5810 5809 5809 5810 5812 5812 5815
5665 5642 5628 5663 5719 5748 5744 5744 5753 5776 5767 5751 5736 5768 5836 5839 5834 5830 5814 5851 5853 5851 5857 5858 5855 5853 5846 5840 5838 5836 5831 5826 5823 5820 5816 5812 5809 5808 5808 5807 5808 5810 5810 5810
5652 5646 5630 5629 5668 5693 5695 5719 5740 5749 5742 5753 5762 5783 5810 5814 5820 5817 5810 5805 5808 5809 5839 5851 5853 5856 5851 5845 5841 5837 5834 5830 5824 5821 5817 5813 5812 5809 5807 5807 5807 5807 5807 5807
5637 5617 5635 5650 5677 5676 5687 5708 5727 5729 5745 5757 5774 5778 5800 5806 5815 5793 5791 5798 5775 5777 5810 5816 5829 5835 5839 5834 5832 5834 5833 5832 5827 5820 5817 5815 5814 5812 5808 5807 5806 5805 5804 5805
5628 5611 5624 5637 5671 5673 5684 5704 5727 5737 5753 5768 5775 5770 5786 5787 5775 5773 5769 5771 5772 5764 5780 5796 5806 5814 5818 5816 5823 5832 5832 5833 5831 5823 5819 5817 5814 5811 5808 5805 5804 5803 5803 5802
5606 5603 5602 5610 5647 5654 5657 5692 5703 5718 5748 5755 5752 5768 5764 5760 5769 5760 5757 5765 5764 5747 5755 5778 5788 5788 5805 5788 5798 5819 5825 5830 5829 5823 5821 5817 5814 5809 5806 5804 5800 5801 5799 5798
5605 5594 5594 5604 5620 5608 5673 5682 5689 5692 5704 5714 5751 5753 5745 5743 5737 5745 5753 5745 5737 5732 5747 5761 5772 5778 5777 5781 5795 5806 5813 5816 5819 5816 5813 5813 5811 5808 5807 5806 5803 5801 5797 5795
5611 5599 5587 5587 5597 5628 5661 5665 5664 5665 5680 5687 5716 5731 5732 5735 5737 5725 5724 5722 5727 5735 5752 5758 5764 5771 5776 5782 5782 5796 5796 5799 5796 5798 5805 5807 5807 5803 5802 5801 5800 5801 5798 5794
5590 5599 5591 5594 5591 5601 5639 5655 5668 5681 5666 5670 5690 5713 5708 5721 5711 5708 5720 5728 5729 5740 5747 5753 5758 5761 5767 5769 5779 5788 5787 5780 5777 5780 5784 5794 5798 5798 5798 5797 5798 5798 5793 5788
5576 5575 5581 5598 5597 5621 5623 5643 5659 5640 5634 5656 5670 5686 5701 5698 5702 5699 5703 5712 5719 5725 5734 5741 5745 5747 5751 5756 5762 5766 5766 5771 5781 5778 5777 5777 5780 5781 5781 5784 5786 5784 5782 5780
5560 5563 5565 5589 5594 5594 5605 5633 5637 5624 5630 5645 5659 5651 5659 5678 5683 5685 5687 5693 5700 5707 5714 5723 5729 5733 5739 5742 5745 5745 5746 5752 5760 5767 5774 5767 5767 5766 5765 5766 5768 5761 5761 5750
5548 5549 5556 5556 5567 5589 5596 5597 5604 5603 5626 5634 5644 5644 5654 5666 5673 5678 5677 5680 5686 5693 5699 5706 5711 5717 5722 5726 5729 5730 5733 5740 5741 5748 5759 5761 5769 5760 5758 5757 5757 5749 5742 5738
5543 5546 5546 5551 5566 5573 5582 5596 5605 5615 5620 5635 5638 5638 5636 5641 5638 5644 5656 5661 5668 5672 5676 5686 5696 5700 5704 5709 5715 5716 5719 5726 5732 5734 5743 5750 5757 5753 5746 5750 5755 5746 5737 5735
5547 5535 5544 5546 5552 5561 5578 5580 5596 5620 5631 5640 5637 5628 5624 5624 5625 5626 5635 5646 5654 5665 5669 5673 5679 5681 5684 5692 5698 5706 5708 5712 5716 5722 5723 5729 5737 5735 5726 5737 5740 5729 5725 5728
5547 5545 5545 5550 5550 5558 5559 5571 5580 5600 5606 5626 5625 5615 5623 5622 5617 5617 5626 5639 5648 5651 5658 5661 5666 5670 5675 5681 5683 5686 5691 5695 5697 5700 5704 5709 5713 5718 5720 5722 5720 5702 5709 5716